Voltar ao catálogo

BREEZE-M R/B

AtivoHEO
NORAD 39128·ROCKET BODY·🇷🇺 Russia

Lançado Apr 15, 2013 de Baikonur Cosmodrome

Loading…

Próximas Passagens (próximas 24 horas)

TLE

AtualizadoSource: Space-Track

Época: Sep 12, 2026, 23:36 UTC

1 39128U 13014B   26255.98390265 -.00000164  00000-0  00000-0 0  9996
2 39128  15.7751 355.5400 4803738 226.4656  82.0598  1.90429769 93299

Acompanhe BREEZE-M R/B em tempo real com AllMySat

Download on the App Store